Hourly Data Report for September 14, 2017

All times are specified in Local Standard Time (LST). Add 1 hour to adjust for Daylight Saving Time where and when it is observed.

NAPPAN AUTO
NOVA SCOTIA

45°45'34.400" N
64°14'29.200" W
19.80 m
8203702
71311
XNP

Download Data

Hourly Data (September 2017)
Hourly Data Report for September 14, 2017
Temp Definition
°C
Dew Point Temp Definition
°C
Rel Hum Definition
%
Wind Dir Definition
10's deg

Wind Spd Definition
km/h
Visibility Definition
km
Stn Press Definition
kPa
Hmdx Definition


Wind Chill Definition


Weather Definition


TIME
00:00 14.7 12.1 85 18 12   100.55     LegendNANA
01:00 14.2 12.1 88 18 12   100.56     LegendNANA
02:00 13.8 12.0 89 17 12   100.57     LegendNANA
03:00 13.7 12.1 90 18 11   100.60     LegendNANA
04:00 13.7 12.0 90 19 14   100.60     LegendNANA
05:00 13.5 12.2 92 19 13   100.62     LegendNANA
06:00 13.4 12.1 92 19 12   100.64     LegendNANA
07:00 13.7 12.4 92 19 11   100.70     LegendNANA
08:00 16.0 13.5 85 19 12   100.72     LegendNANA
09:00 19.2 15.1 77 20 13   100.75     LegendNANA
10:00 22.1 15.3 65 22 15   100.74 26   LegendNANA
11:00 22.8 15.6 64 26 11   100.73 27   LegendNANA
12:00 23.1 16.4 66 28 15   100.71 28   LegendNANA
13:00 23.5 16.6 65 29 15   100.69 29   LegendNANA
14:00 25.7 15.6 54 23 20   100.69 30   LegendNANA
15:00 25.3 16.0 56 22 24   100.68 30   LegendNANA
16:00 24.8 15.2 55 22 26   100.69 29   LegendNANA
17:00 23.5 15.4 60 23 14   100.74 28   LegendNANA
18:00 20.9 15.0 69 22 6   100.80 25   LegendNANA
19:00 18.9 14.3 75 20 11   100.88     LegendNANA
20:00 18.3 14.4 78 16 10   100.97     LegendNANA
21:00 18.0 14.5 80 18 14   100.98     LegendNANA
22:00 16.2 14.1 87 17 6   101.03     LegendNANA
23:00 16.3 14.0 86 18 9   101.06     LegendNANA

Notes on Data Quality.

Legend

  • E = Estimated
  • M = Missing
  • NA = Not Available
  • ‡ = Partner data that is not subject to review by the National Climate Archives
Date modified: